Year,Month,Day,Hour,Minute,Value (Times are PST for windspeed in km/hr)
2017,05,09,00,00,0.00
2017,05,09,00,01,0.00
2017,05,09,00,02,0.00
2017,05,09,00,03,0.00
2017,05,09,00,04,0.00
2017,05,09,00,05,0.00
2017,05,09,00,06,0.00
2017,05,09,00,07,0.00
2017,05,09,00,08,0.00
2017,05,09,00,09,0.00
2017,05,09,00,10,0.00
2017,05,09,00,11,0.00
2017,05,09,00,12,0.00
2017,05,09,00,13,0.00
2017,05,09,00,14,0.00
2017,05,09,00,15,0.10
2017,05,09,00,16,0.00
2017,05,09,00,17,0.00
2017,05,09,00,18,0.00
2017,05,09,00,19,0.00
2017,05,09,00,20,0.00
2017,05,09,00,21,0.00
2017,05,09,00,22,0.00
2017,05,09,00,23,0.00
2017,05,09,00,24,0.00
2017,05,09,00,25,0.00
2017,05,09,00,26,0.00
2017,05,09,00,27,0.00
2017,05,09,00,28,0.00
2017,05,09,00,29,0.00
2017,05,09,00,30,0.00
2017,05,09,00,31,0.00
2017,05,09,00,32,0.00
2017,05,09,00,33,0.00
2017,05,09,00,34,0.00
2017,05,09,00,35,0.00
2017,05,09,00,36,0.00
2017,05,09,00,37,0.00
2017,05,09,00,38,0.00
2017,05,09,00,39,0.00
2017,05,09,00,40,0.00
2017,05,09,00,41,0.00
2017,05,09,00,42,0.00
2017,05,09,00,43,0.00
2017,05,09,00,44,0.00
2017,05,09,00,45,0.00
2017,05,09,00,46,0.00
2017,05,09,00,47,0.00
2017,05,09,00,48,0.00
2017,05,09,00,49,0.00
2017,05,09,00,50,0.00
2017,05,09,00,51,0.00
2017,05,09,00,52,0.00
2017,05,09,00,53,0.00
2017,05,09,00,54,0.00
2017,05,09,00,55,0.00
2017,05,09,00,56,0.00
2017,05,09,00,57,0.00
2017,05,09,00,58,0.00
2017,05,09,00,59,0.00
2017,05,09,01,00,0.00
2017,05,09,01,01,0.00
2017,05,09,01,02,0.00
2017,05,09,01,03,0.00
2017,05,09,01,04,0.00
2017,05,09,01,05,0.00
2017,05,09,01,06,0.00
2017,05,09,01,07,0.00
2017,05,09,01,08,0.00
2017,05,09,01,09,0.00
2017,05,09,01,10,0.00
2017,05,09,01,11,0.00
2017,05,09,01,12,0.00
2017,05,09,01,13,0.00
2017,05,09,01,14,0.00
2017,05,09,01,15,0.00
2017,05,09,01,16,0.00
2017,05,09,01,17,0.00
2017,05,09,01,18,0.00
2017,05,09,01,19,0.00
2017,05,09,01,20,0.00
2017,05,09,01,21,0.00
2017,05,09,01,22,0.00
2017,05,09,01,23,0.00
2017,05,09,01,24,0.00
2017,05,09,01,25,0.00
2017,05,09,01,26,0.00
2017,05,09,01,27,0.00
2017,05,09,01,28,0.00
2017,05,09,01,29,0.00
2017,05,09,01,30,0.00
2017,05,09,01,31,0.00
2017,05,09,01,32,0.00
2017,05,09,01,33,0.00
2017,05,09,01,34,0.00
2017,05,09,01,35,0.00
2017,05,09,01,36,0.00
2017,05,09,01,37,0.00
2017,05,09,01,38,0.00
2017,05,09,01,39,0.00
2017,05,09,01,40,0.00
2017,05,09,01,41,0.00
2017,05,09,01,42,0.00
2017,05,09,01,43,0.00
2017,05,09,01,44,0.00
2017,05,09,01,45,0.00
2017,05,09,01,46,0.00
2017,05,09,01,47,0.00
2017,05,09,01,48,0.00
2017,05,09,01,49,0.00
2017,05,09,01,50,0.00
2017,05,09,01,51,0.00
2017,05,09,01,52,0.00
2017,05,09,01,53,0.00
2017,05,09,01,54,0.00
2017,05,09,01,55,0.00
2017,05,09,01,56,0.00
2017,05,09,01,57,0.00
2017,05,09,01,58,0.00
2017,05,09,01,59,0.00
2017,05,09,02,00,0.00
2017,05,09,02,01,0.00
2017,05,09,02,02,0.00
2017,05,09,02,03,0.00
2017,05,09,02,04,0.00
2017,05,09,02,05,0.00
2017,05,09,02,06,0.00
2017,05,09,02,07,0.00
2017,05,09,02,08,0.00
2017,05,09,02,09,0.00
2017,05,09,02,10,0.00
2017,05,09,02,11,0.00
2017,05,09,02,12,0.00
2017,05,09,02,13,0.00
2017,05,09,02,14,0.00
2017,05,09,02,15,0.00
2017,05,09,02,16,0.00
2017,05,09,02,17,0.00
2017,05,09,02,18,0.00
2017,05,09,02,19,0.00
2017,05,09,02,20,0.00
2017,05,09,02,21,0.00
2017,05,09,02,22,0.00
2017,05,09,02,23,0.00
2017,05,09,02,24,0.00
2017,05,09,02,25,0.00
2017,05,09,02,26,0.00
2017,05,09,02,27,0.00
2017,05,09,02,28,0.00
2017,05,09,02,29,0.00
2017,05,09,02,30,0.00
2017,05,09,02,31,0.00
2017,05,09,02,32,0.00
2017,05,09,02,33,0.00
2017,05,09,02,34,0.00
2017,05,09,02,35,0.00
2017,05,09,02,36,0.00
2017,05,09,02,37,0.00
2017,05,09,02,38,0.00
2017,05,09,02,39,0.00
2017,05,09,02,40,0.00
2017,05,09,02,41,0.00
2017,05,09,02,42,0.00
2017,05,09,02,43,0.00
2017,05,09,02,44,0.00
2017,05,09,02,45,0.00
2017,05,09,02,46,0.00
2017,05,09,02,47,0.00
2017,05,09,02,48,0.00
2017,05,09,02,49,0.00
2017,05,09,02,50,0.00
2017,05,09,02,51,0.00
2017,05,09,02,52,0.00
2017,05,09,02,53,0.00
2017,05,09,02,54,0.00
2017,05,09,02,55,0.00
2017,05,09,02,56,0.00
2017,05,09,02,57,0.00
2017,05,09,02,58,0.00
2017,05,09,02,59,0.00
2017,05,09,03,00,0.00
2017,05,09,03,01,0.00
2017,05,09,03,02,0.00
2017,05,09,03,03,0.00
2017,05,09,03,04,0.00
2017,05,09,03,05,0.00
2017,05,09,03,06,0.00
2017,05,09,03,07,0.00
2017,05,09,03,08,0.00
2017,05,09,03,09,0.00
2017,05,09,03,10,0.00
2017,05,09,03,11,0.00
2017,05,09,03,12,0.00
2017,05,09,03,13,0.00
2017,05,09,03,14,0.00
2017,05,09,03,15,0.00
2017,05,09,03,16,0.00
2017,05,09,03,17,0.00
2017,05,09,03,18,0.00
2017,05,09,03,19,0.00
2017,05,09,03,20,0.00
2017,05,09,03,21,0.00
2017,05,09,03,22,0.10
2017,05,09,03,23,0.00
2017,05,09,03,24,0.00
2017,05,09,03,25,0.60
2017,05,09,03,26,4.20
2017,05,09,03,27,2.20
2017,05,09,03,28,1.40
2017,05,09,03,29,1.90
2017,05,09,03,30,2.60
2017,05,09,03,31,1.80
2017,05,09,03,32,0.00
2017,05,09,03,33,0.10
2017,05,09,03,34,0.00
2017,05,09,03,35,0.00
2017,05,09,03,36,0.00
2017,05,09,03,37,0.00
2017,05,09,03,38,0.00
2017,05,09,03,39,0.00
2017,05,09,03,40,0.00
2017,05,09,03,41,0.00
2017,05,09,03,42,0.00
2017,05,09,03,43,0.00
2017,05,09,03,44,0.10
2017,05,09,03,45,0.00
2017,05,09,03,46,0.00
2017,05,09,03,47,0.10
2017,05,09,03,48,1.40
2017,05,09,03,49,0.10
2017,05,09,03,50,0.00
2017,05,09,03,51,0.00
2017,05,09,03,52,0.00
2017,05,09,03,53,0.00
2017,05,09,03,54,0.00
2017,05,09,03,55,0.00
2017,05,09,03,56,0.00
2017,05,09,03,57,0.00
2017,05,09,03,58,0.00
2017,05,09,03,59,0.10
2017,05,09,04,00,0.00
2017,05,09,04,01,0.00
2017,05,09,04,02,0.00
2017,05,09,04,03,0.00
2017,05,09,04,04,0.00
2017,05,09,04,05,0.00
2017,05,09,04,06,0.00
2017,05,09,04,07,0.00
2017,05,09,04,08,0.00
2017,05,09,04,09,0.00
2017,05,09,04,10,0.00
2017,05,09,04,11,0.00
2017,05,09,04,12,0.00
2017,05,09,04,13,0.00
2017,05,09,04,14,0.00
2017,05,09,04,15,0.00
2017,05,09,04,16,0.00
2017,05,09,04,17,0.10
2017,05,09,04,18,0.00
2017,05,09,04,19,0.00
2017,05,09,04,20,0.00
2017,05,09,04,21,0.00
2017,05,09,04,22,0.00
2017,05,09,04,23,0.00
2017,05,09,04,24,0.00
2017,05,09,04,25,0.00
2017,05,09,04,26,0.00
2017,05,09,04,27,0.00
2017,05,09,04,28,0.00
2017,05,09,04,29,0.10
2017,05,09,04,30,0.00
2017,05,09,04,31,0.00
2017,05,09,04,32,0.00
2017,05,09,04,33,0.00
2017,05,09,04,34,0.00
2017,05,09,04,35,0.00
2017,05,09,04,36,0.00
2017,05,09,04,37,0.00
2017,05,09,04,38,0.00
2017,05,09,04,39,0.00
2017,05,09,04,40,0.00
2017,05,09,04,41,0.00
2017,05,09,04,42,0.00
2017,05,09,04,43,0.00
2017,05,09,04,44,0.00
2017,05,09,04,45,0.00
2017,05,09,04,46,0.00
2017,05,09,04,47,0.00
2017,05,09,04,48,0.00
2017,05,09,04,49,0.00
2017,05,09,04,50,0.00
2017,05,09,04,51,0.00
2017,05,09,04,52,0.00
2017,05,09,04,53,0.00
2017,05,09,04,54,0.00
2017,05,09,04,55,0.00
2017,05,09,04,56,0.00
2017,05,09,04,57,0.00
2017,05,09,04,58,0.00
2017,05,09,04,59,0.00
2017,05,09,05,00,0.00
2017,05,09,05,01,0.00
2017,05,09,05,02,0.00
2017,05,09,05,03,0.00
2017,05,09,05,04,0.00
2017,05,09,05,05,0.00
2017,05,09,05,06,0.00
2017,05,09,05,07,0.00
2017,05,09,05,08,0.00
2017,05,09,05,09,0.00
2017,05,09,05,10,0.00
2017,05,09,05,11,0.00
2017,05,09,05,12,0.00
2017,05,09,05,13,0.00
2017,05,09,05,14,0.00
2017,05,09,05,15,0.00
2017,05,09,05,16,0.00
2017,05,09,05,17,0.00
2017,05,09,05,18,0.00
2017,05,09,05,19,0.00
2017,05,09,05,20,0.00
2017,05,09,05,21,0.00
2017,05,09,05,22,0.00
2017,05,09,05,23,0.00
2017,05,09,05,24,0.00
2017,05,09,05,25,0.00
2017,05,09,05,26,0.00
2017,05,09,05,27,0.00
2017,05,09,05,28,0.00
2017,05,09,05,29,0.00
2017,05,09,05,30,0.00
2017,05,09,05,31,0.00
2017,05,09,05,32,0.00
2017,05,09,05,33,0.00
2017,05,09,05,34,0.00
2017,05,09,05,35,0.00
2017,05,09,05,36,0.00
2017,05,09,05,37,0.00
2017,05,09,05,38,0.00
2017,05,09,05,39,0.00
2017,05,09,05,40,0.00
2017,05,09,05,41,0.00
2017,05,09,05,42,0.00
2017,05,09,05,43,0.00
2017,05,09,05,44,0.00
2017,05,09,05,45,0.00
2017,05,09,05,46,0.00
2017,05,09,05,47,0.00
2017,05,09,05,48,0.00
2017,05,09,05,49,0.00
2017,05,09,05,50,0.00
2017,05,09,05,51,0.00
2017,05,09,05,52,0.00
2017,05,09,05,53,0.00
2017,05,09,05,54,0.00
2017,05,09,05,55,0.00
2017,05,09,05,56,0.00
2017,05,09,05,57,0.00
2017,05,09,05,58,0.00
2017,05,09,05,59,0.00
2017,05,09,06,00,0.00
2017,05,09,06,01,0.00
2017,05,09,06,02,0.00
2017,05,09,06,03,0.00
2017,05,09,06,04,0.00
2017,05,09,06,05,0.00
2017,05,09,06,06,0.00
2017,05,09,06,07,0.00
2017,05,09,06,08,0.00
2017,05,09,06,09,0.00
2017,05,09,06,10,0.00
2017,05,09,06,11,0.00
2017,05,09,06,12,0.00
2017,05,09,06,13,0.00
2017,05,09,06,14,0.00
2017,05,09,06,15,0.00
2017,05,09,06,16,0.00
2017,05,09,06,17,0.00
2017,05,09,06,18,0.00
2017,05,09,06,19,0.00
2017,05,09,06,20,0.00
2017,05,09,06,21,0.00
2017,05,09,06,22,0.00
2017,05,09,06,23,0.00
2017,05,09,06,24,0.00
2017,05,09,06,25,0.00
2017,05,09,06,26,0.00
2017,05,09,06,27,0.00
2017,05,09,06,28,0.00
2017,05,09,06,29,0.00
2017,05,09,06,30,0.00
2017,05,09,06,31,0.00
2017,05,09,06,32,0.00
2017,05,09,06,33,0.00
2017,05,09,06,34,0.00
2017,05,09,06,35,0.00
2017,05,09,06,36,0.00
2017,05,09,06,37,0.00
2017,05,09,06,38,0.00
2017,05,09,06,39,0.00
2017,05,09,06,40,0.00
2017,05,09,06,41,0.00
2017,05,09,06,42,0.00
2017,05,09,06,43,0.00
2017,05,09,06,44,0.00
2017,05,09,06,45,0.00
2017,05,09,06,46,0.00
2017,05,09,06,47,0.00
2017,05,09,06,48,0.00
2017,05,09,06,49,0.00
2017,05,09,06,50,0.00
2017,05,09,06,51,0.00
2017,05,09,06,52,0.00
2017,05,09,06,53,0.00
2017,05,09,06,54,0.00
2017,05,09,06,55,0.00
2017,05,09,06,56,0.00
2017,05,09,06,57,0.00
2017,05,09,06,58,0.00
2017,05,09,06,59,0.00
2017,05,09,07,00,0.00
2017,05,09,07,01,0.00
2017,05,09,07,02,0.00
2017,05,09,07,03,0.00
2017,05,09,07,04,0.00
2017,05,09,07,05,0.00
2017,05,09,07,06,0.00
2017,05,09,07,07,0.00
2017,05,09,07,08,0.00
2017,05,09,07,09,0.00
2017,05,09,07,10,0.00
2017,05,09,07,11,0.00
2017,05,09,07,12,0.10
2017,05,09,07,13,0.00
2017,05,09,07,14,0.00
2017,05,09,07,15,0.00
2017,05,09,07,16,0.00
2017,05,09,07,17,0.00
2017,05,09,07,18,0.00
2017,05,09,07,19,0.00
2017,05,09,07,20,0.00
2017,05,09,07,21,0.00
2017,05,09,07,22,0.00
2017,05,09,07,23,0.00
2017,05,09,07,24,0.00
2017,05,09,07,25,0.00
2017,05,09,07,26,0.00
2017,05,09,07,27,0.00
2017,05,09,07,28,0.00
2017,05,09,07,29,0.00
2017,05,09,07,30,0.00
2017,05,09,07,31,0.00
2017,05,09,07,32,0.00
2017,05,09,07,33,0.00
2017,05,09,07,34,0.00
2017,05,09,07,35,0.00
2017,05,09,07,36,0.00
2017,05,09,07,37,0.00
2017,05,09,07,38,0.00
2017,05,09,07,39,0.00
2017,05,09,07,40,0.00
2017,05,09,07,41,0.00
2017,05,09,07,42,0.00
2017,05,09,07,43,0.00
2017,05,09,07,44,0.00
2017,05,09,07,45,0.00
2017,05,09,07,46,0.00
2017,05,09,07,47,0.00
2017,05,09,07,48,0.00
2017,05,09,07,49,0.10
2017,05,09,07,50,0.00
2017,05,09,07,51,0.00
2017,05,09,07,52,0.00
2017,05,09,07,53,0.00
2017,05,09,07,54,0.00
2017,05,09,07,55,0.00
2017,05,09,07,56,0.00
2017,05,09,07,57,0.00
2017,05,09,07,58,0.00
2017,05,09,07,59,0.00
2017,05,09,08,00,0.00
2017,05,09,08,01,0.00
2017,05,09,08,02,0.00
2017,05,09,08,03,0.00
2017,05,09,08,04,0.00
2017,05,09,08,05,0.20
2017,05,09,08,06,0.00
2017,05,09,08,07,0.00
2017,05,09,08,08,0.00
2017,05,09,08,09,0.00
2017,05,09,08,10,1.20
2017,05,09,08,11,0.40
2017,05,09,08,12,2.90
2017,05,09,08,13,0.10
2017,05,09,08,14,0.80
2017,05,09,08,15,1.10
2017,05,09,08,16,0.30
2017,05,09,08,17,3.00
2017,05,09,08,18,0.20
2017,05,09,08,19,3.00
2017,05,09,08,20,0.30
2017,05,09,08,21,0.90
2017,05,09,08,22,1.20
2017,05,09,08,23,0.30
2017,05,09,08,24,0.00
2017,05,09,08,25,0.00
2017,05,09,08,26,0.20
2017,05,09,08,27,0.00
2017,05,09,08,28,0.00
2017,05,09,08,29,0.00
2017,05,09,08,30,0.20
2017,05,09,08,31,3.70
2017,05,09,08,32,4.70
2017,05,09,08,33,0.20
2017,05,09,08,34,1.00
2017,05,09,08,35,0.00
2017,05,09,08,36,0.00
2017,05,09,08,37,0.00
2017,05,09,08,38,0.00
2017,05,09,08,39,0.00
2017,05,09,08,40,0.00
2017,05,09,08,41,0.00
2017,05,09,08,42,0.00
2017,05,09,08,43,0.10
2017,05,09,08,44,0.00
2017,05,09,08,45,0.10
2017,05,09,08,46,0.00
2017,05,09,08,47,0.00
2017,05,09,08,48,0.10
2017,05,09,08,49,0.20
2017,05,09,08,50,0.30
2017,05,09,08,51,0.20
2017,05,09,08,52,0.40
2017,05,09,08,53,0.20
2017,05,09,08,54,0.50
2017,05,09,08,55,1.40
2017,05,09,08,56,0.60
2017,05,09,08,57,3.30
2017,05,09,08,58,3.20
2017,05,09,08,59,1.90
2017,05,09,09,00,0.70
2017,05,09,09,01,0.30
2017,05,09,09,02,0.30
2017,05,09,09,03,2.00
2017,05,09,09,04,1.90
2017,05,09,09,05,1.00
2017,05,09,09,06,0.80
2017,05,09,09,07,0.50
2017,05,09,09,08,3.10
2017,05,09,09,09,4.30
2017,05,09,09,10,0.30
2017,05,09,09,11,1.80
2017,05,09,09,12,1.70
2017,05,09,09,13,6.00
2017,05,09,09,14,4.30
2017,05,09,09,15,1.40
2017,05,09,09,16,1.70
2017,05,09,09,17,5.80
2017,05,09,09,18,6.80
2017,05,09,09,19,5.30
2017,05,09,09,20,0.70
2017,05,09,09,21,2.60
2017,05,09,09,22,4.30
2017,05,09,09,23,5.30
2017,05,09,09,24,1.90
2017,05,09,09,25,0.90
2017,05,09,09,26,4.70
2017,05,09,09,27,6.60
2017,05,09,09,28,5.60
2017,05,09,09,29,6.70
2017,05,09,09,30,6.20
2017,05,09,09,31,10.10
2017,05,09,09,32,4.20
2017,05,09,09,33,8.30
2017,05,09,09,34,5.80
2017,05,09,09,35,7.10
2017,05,09,09,36,3.90
2017,05,09,09,37,3.30
2017,05,09,09,38,5.90
2017,05,09,09,39,6.80
2017,05,09,09,40,5.60
2017,05,09,09,41,6.80
2017,05,09,09,42,1.90
2017,05,09,09,43,3.80
2017,05,09,09,44,5.20
2017,05,09,09,45,6.30
2017,05,09,09,46,9.20
2017,05,09,09,47,4.80
2017,05,09,09,48,2.40
2017,05,09,09,49,0.00
2017,05,09,09,50,1.40
2017,05,09,09,51,4.80
2017,05,09,09,52,1.90
2017,05,09,09,53,2.20
2017,05,09,09,54,6.10
2017,05,09,09,55,4.90
2017,05,09,09,56,3.40
2017,05,09,09,57,5.60
2017,05,09,09,58,4.30
2017,05,09,09,59,5.20
2017,05,09,10,00,5.60
2017,05,09,10,01,6.80
2017,05,09,10,02,4.40
2017,05,09,10,03,4.90
2017,05,09,10,04,4.50
2017,05,09,10,05,8.60
2017,05,09,10,06,6.10
2017,05,09,10,07,4.30
2017,05,09,10,08,7.00
2017,05,09,10,09,2.30
2017,05,09,10,10,2.70
2017,05,09,10,11,3.80
2017,05,09,10,12,6.10
2017,05,09,10,13,4.90
2017,05,09,10,14,1.90
2017,05,09,10,15,7.80
2017,05,09,10,16,10.10
2017,05,09,10,17,6.80
2017,05,09,10,18,4.10
2017,05,09,10,19,2.60
2017,05,09,10,20,8.50
2017,05,09,10,21,10.50
2017,05,09,10,22,8.40
2017,05,09,10,23,7.20
2017,05,09,10,24,4.20
2017,05,09,10,25,6.90
2017,05,09,10,26,7.80
2017,05,09,10,27,4.50
2017,05,09,10,28,0.70
2017,05,09,10,29,7.70
2017,05,09,10,30,9.90
2017,05,09,10,31,10.40
2017,05,09,10,32,8.10
2017,05,09,10,33,3.60
2017,05,09,10,34,3.90
2017,05,09,10,35,2.30
2017,05,09,10,36,2.00
2017,05,09,10,37,7.60
2017,05,09,10,38,7.10
2017,05,09,10,39,3.70
2017,05,09,10,40,1.90
2017,05,09,10,41,4.30
2017,05,09,10,42,1.90
2017,05,09,10,43,6.60
2017,05,09,10,44,1.40
2017,05,09,10,45,4.80
2017,05,09,10,46,0.60
2017,05,09,10,47,0.70
2017,05,09,10,48,2.50
2017,05,09,10,49,3.10
2017,05,09,10,50,6.50
2017,05,09,10,51,5.60
2017,05,09,10,52,3.70
2017,05,09,10,53,7.40
2017,05,09,10,54,7.70
2017,05,09,10,55,6.00
2017,05,09,10,56,6.60
2017,05,09,10,57,4.60
2017,05,09,10,58,4.10
2017,05,09,10,59,2.20
2017,05,09,11,00,5.10
2017,05,09,11,01,6.60
2017,05,09,11,02,1.50
2017,05,09,11,03,1.60
2017,05,09,11,04,0.00
2017,05,09,11,05,3.70
2017,05,09,11,06,3.90
2017,05,09,11,07,4.50
2017,05,09,11,08,4.80
2017,05,09,11,09,7.00
2017,05,09,11,10,5.70
2017,05,09,11,11,5.10
2017,05,09,11,12,4.60
2017,05,09,11,13,8.50
2017,05,09,11,14,4.40
2017,05,09,11,15,5.80
2017,05,09,11,16,6.90
2017,05,09,11,17,9.50
2017,05,09,11,18,6.40
2017,05,09,11,19,6.00
2017,05,09,11,20,5.00
2017,05,09,11,21,3.90
2017,05,09,11,22,0.00
2017,05,09,11,23,4.60
2017,05,09,11,24,7.60
2017,05,09,11,25,3.00
2017,05,09,11,26,0.60
2017,05,09,11,27,1.30
2017,05,09,11,28,0.50
2017,05,09,11,29,2.50
2017,05,09,11,30,0.20
2017,05,09,11,31,4.40
2017,05,09,11,32,7.70
2017,05,09,11,33,6.30
2017,05,09,11,34,4.90
2017,05,09,11,35,4.20
2017,05,09,11,36,3.50
2017,05,09,11,37,3.10
2017,05,09,11,38,0.60
2017,05,09,11,39,0.10
2017,05,09,11,40,5.40
2017,05,09,11,41,8.60
2017,05,09,11,42,2.00
2017,05,09,11,43,7.70
2017,05,09,11,44,8.20
2017,05,09,11,45,1.90
2017,05,09,11,46,2.40
2017,05,09,11,47,6.90
2017,05,09,11,48,5.90
2017,05,09,11,49,0.00
2017,05,09,11,50,0.50
2017,05,09,11,51,0.80
2017,05,09,11,52,2.80
2017,05,09,11,53,1.10
2017,05,09,11,54,1.50
2017,05,09,11,55,4.40
2017,05,09,11,56,0.00
2017,05,09,11,57,0.00
2017,05,09,11,58,0.60
2017,05,09,11,59,0.10
2017,05,09,12,00,0.00
2017,05,09,12,01,0.00
2017,05,09,12,02,0.00
2017,05,09,12,03,0.00
2017,05,09,12,04,0.10
2017,05,09,12,05,0.90
2017,05,09,12,06,1.00
2017,05,09,12,07,0.10
2017,05,09,12,08,1.50
2017,05,09,12,09,0.00
2017,05,09,12,10,2.30
2017,05,09,12,11,1.10
2017,05,09,12,12,0.00
2017,05,09,12,13,0.20
2017,05,09,12,14,0.00
2017,05,09,12,15,1.80
2017,05,09,12,16,3.10
2017,05,09,12,17,0.00
2017,05,09,12,18,0.50
2017,05,09,12,19,0.00
2017,05,09,12,20,3.60
2017,05,09,12,21,6.00
2017,05,09,12,22,0.00
2017,05,09,12,23,0.80
2017,05,09,12,24,0.30
2017,05,09,12,25,0.50
2017,05,09,12,26,0.00
2017,05,09,12,27,4.80
2017,05,09,12,28,5.10
2017,05,09,12,29,0.10
2017,05,09,12,30,0.00
2017,05,09,12,31,2.80
2017,05,09,12,32,8.10
2017,05,09,12,33,6.80
2017,05,09,12,34,0.70
2017,05,09,12,35,1.40
2017,05,09,12,36,2.50
2017,05,09,12,37,1.80
2017,05,09,12,38,8.00
2017,05,09,12,39,7.10
2017,05,09,12,40,5.20
2017,05,09,12,41,3.10
2017,05,09,12,42,0.50
2017,05,09,12,43,0.80
2017,05,09,12,44,6.40
2017,05,09,12,45,5.70
2017,05,09,12,46,8.90
2017,05,09,12,47,5.30
2017,05,09,12,48,2.50
2017,05,09,12,49,4.80
2017,05,09,12,50,8.10
2017,05,09,12,51,5.90
2017,05,09,12,52,5.60
2017,05,09,12,53,7.10
2017,05,09,12,54,5.80
2017,05,09,12,55,8.80
2017,05,09,12,56,5.50
2017,05,09,12,57,8.40
2017,05,09,12,58,6.60
2017,05,09,12,59,7.10
2017,05,09,13,00,7.00
2017,05,09,13,01,10.10
2017,05,09,13,02,1.90
2017,05,09,13,03,1.20
2017,05,09,13,04,2.60
2017,05,09,13,05,6.50
2017,05,09,13,06,8.90
2017,05,09,13,07,9.80
2017,05,09,13,08,8.40
2017,05,09,13,09,6.60
2017,05,09,13,10,3.40
2017,05,09,13,11,12.00
2017,05,09,13,12,8.00
2017,05,09,13,13,9.10
2017,05,09,13,14,9.70
2017,05,09,13,15,9.80
2017,05,09,13,16,14.00
2017,05,09,13,17,10.00
2017,05,09,13,18,6.20
2017,05,09,13,19,8.40
2017,05,09,13,20,6.80
2017,05,09,13,21,10.30
2017,05,09,13,22,8.90
2017,05,09,13,23,11.40
2017,05,09,13,24,8.20
2017,05,09,13,25,9.30
2017,05,09,13,26,5.10
2017,05,09,13,27,6.40
2017,05,09,13,28,6.40
2017,05,09,13,29,1.60
2017,05,09,13,30,3.40
2017,05,09,13,31,11.50
2017,05,09,13,32,9.30
2017,05,09,13,33,9.10
2017,05,09,13,34,10.00
2017,05,09,13,35,7.00
2017,05,09,13,36,8.70
2017,05,09,13,37,13.00
2017,05,09,13,38,7.30
2017,05,09,13,39,6.10
2017,05,09,13,40,5.60
2017,05,09,13,41,3.50
2017,05,09,13,42,7.00
2017,05,09,13,43,4.30
2017,05,09,13,44,1.60
2017,05,09,13,45,7.90
2017,05,09,13,46,12.60
2017,05,09,13,47,8.70
2017,05,09,13,48,10.20
2017,05,09,13,49,6.90
2017,05,09,13,50,5.60
2017,05,09,13,51,8.00
2017,05,09,13,52,2.60
2017,05,09,13,53,2.50
2017,05,09,13,54,5.00
2017,05,09,13,55,6.50
2017,05,09,13,56,8.70
2017,05,09,13,57,10.10
2017,05,09,13,58,6.50
2017,05,09,13,59,4.70
2017,05,09,14,00,5.60
2017,05,09,14,01,2.70
2017,05,09,14,02,4.30
2017,05,09,14,03,4.60
2017,05,09,14,04,6.10
2017,05,09,14,05,6.30
2017,05,09,14,06,3.70
2017,05,09,14,07,8.40
2017,05,09,14,08,4.30
2017,05,09,14,09,9.50
2017,05,09,14,10,9.30
2017,05,09,14,11,9.70
2017,05,09,14,12,1.80
2017,05,09,14,13,2.80
2017,05,09,14,14,0.60
2017,05,09,14,15,3.10
2017,05,09,14,16,3.40
2017,05,09,14,17,1.80
2017,05,09,14,18,7.10
2017,05,09,14,19,5.80
2017,05,09,14,20,4.60
2017,05,09,14,21,6.70
2017,05,09,14,22,0.60
2017,05,09,14,23,5.30
2017,05,09,14,24,4.30
2017,05,09,14,25,7.20
2017,05,09,14,26,7.10
2017,05,09,14,27,5.70
2017,05,09,14,28,8.00
2017,05,09,14,29,7.40
2017,05,09,14,30,11.40
2017,05,09,14,31,8.40
2017,05,09,14,32,7.50
2017,05,09,14,33,9.10
2017,05,09,14,34,9.00
2017,05,09,14,35,4.70
2017,05,09,14,36,12.00
2017,05,09,14,37,7.00
2017,05,09,14,38,7.10
2017,05,09,14,39,8.60
2017,05,09,14,40,4.60
2017,05,09,14,41,8.70
2017,05,09,14,42,7.80
2017,05,09,14,43,9.40
2017,05,09,14,44,7.10
2017,05,09,14,45,5.60
2017,05,09,14,46,6.30
2017,05,09,14,47,1.00
2017,05,09,14,48,5.30
2017,05,09,14,49,4.30
2017,05,09,14,50,6.10
2017,05,09,14,51,10.90
2017,05,09,14,52,6.90
2017,05,09,14,53,6.30
2017,05,09,14,54,4.20
2017,05,09,14,55,11.80
2017,05,09,14,56,4.50
2017,05,09,14,57,6.80
2017,05,09,14,58,8.50
2017,05,09,14,59,3.80
2017,05,09,15,00,10.60
2017,05,09,15,01,6.70
2017,05,09,15,02,7.80
2017,05,09,15,03,8.00
2017,05,09,15,04,7.40
2017,05,09,15,05,5.40
2017,05,09,15,06,9.00
2017,05,09,15,07,6.00
2017,05,09,15,08,9.20
2017,05,09,15,09,9.60
2017,05,09,15,10,9.00
2017,05,09,15,11,3.20
2017,05,09,15,12,9.40
2017,05,09,15,13,9.80
2017,05,09,15,14,7.20
2017,05,09,15,15,4.70
2017,05,09,15,16,8.30
2017,05,09,15,17,8.60
2017,05,09,15,18,10.10
2017,05,09,15,19,6.80
2017,05,09,15,20,8.10
2017,05,09,15,21,15.20
2017,05,09,15,22,9.90
2017,05,09,15,23,10.90
2017,05,09,15,24,7.10
2017,05,09,15,25,6.80
2017,05,09,15,26,2.50
2017,05,09,15,27,0.80
2017,05,09,15,28,2.00
2017,05,09,15,29,5.10
2017,05,09,15,30,7.00
2017,05,09,15,31,9.70
2017,05,09,15,32,10.70
2017,05,09,15,33,12.30
2017,05,09,15,34,9.10
2017,05,09,15,35,2.70
2017,05,09,15,36,9.50
2017,05,09,15,37,10.50
2017,05,09,15,38,7.50
2017,05,09,15,39,8.30
2017,05,09,15,40,7.00
2017,05,09,15,41,6.20
2017,05,09,15,42,8.30
2017,05,09,15,43,8.40
2017,05,09,15,44,6.50
2017,05,09,15,45,6.20
2017,05,09,15,46,8.40
2017,05,09,15,47,8.90
2017,05,09,15,48,9.70
2017,05,09,15,49,7.30
2017,05,09,15,50,6.70
2017,05,09,15,51,10.70
2017,05,09,15,52,8.80
2017,05,09,15,53,7.40
2017,05,09,15,54,9.70
2017,05,09,15,55,8.10
2017,05,09,15,56,8.20
2017,05,09,15,57,10.90
2017,05,09,15,58,11.40
2017,05,09,15,59,7.80
2017,05,09,16,00,4.30
2017,05,09,16,01,3.30
2017,05,09,16,02,9.30
2017,05,09,16,03,4.30
2017,05,09,16,04,7.00
2017,05,09,16,05,8.10
2017,05,09,16,06,7.70
2017,05,09,16,07,7.70
2017,05,09,16,08,8.90
2017,05,09,16,09,7.80
2017,05,09,16,10,6.60
2017,05,09,16,11,7.20
2017,05,09,16,12,8.70
2017,05,09,16,13,7.60
2017,05,09,16,14,9.20
2017,05,09,16,15,12.60
2017,05,09,16,16,7.90
2017,05,09,16,17,8.80
2017,05,09,16,18,9.00
2017,05,09,16,19,6.80
2017,05,09,16,20,2.60
2017,05,09,16,21,0.60
2017,05,09,16,22,7.00
2017,05,09,16,23,10.30
2017,05,09,16,24,8.90
2017,05,09,16,25,4.10
2017,05,09,16,26,5.30
2017,05,09,16,27,5.90
2017,05,09,16,28,9.80
2017,05,09,16,29,7.60
2017,05,09,16,30,6.20
2017,05,09,16,31,9.00
2017,05,09,16,32,10.70
2017,05,09,16,33,8.60
2017,05,09,16,34,3.20
2017,05,09,16,35,11.50
2017,05,09,16,36,11.70
2017,05,09,16,37,6.40
2017,05,09,16,38,0.50
2017,05,09,16,39,3.60
2017,05,09,16,40,6.50
2017,05,09,16,41,8.50
2017,05,09,16,42,9.80
2017,05,09,16,43,6.80
2017,05,09,16,44,7.20
2017,05,09,16,45,5.30
2017,05,09,16,46,7.70
2017,05,09,16,47,5.30
2017,05,09,16,48,9.20
2017,05,09,16,49,3.90
2017,05,09,16,50,10.10
2017,05,09,16,51,9.10
2017,05,09,16,52,8.10
2017,05,09,16,53,1.70
2017,05,09,16,54,8.20
2017,05,09,16,55,9.90
2017,05,09,16,56,10.10
2017,05,09,16,57,4.40
2017,05,09,16,58,4.20
2017,05,09,16,59,8.70
2017,05,09,17,00,8.50
2017,05,09,17,01,6.50
2017,05,09,17,02,7.80
2017,05,09,17,03,3.50
2017,05,09,17,04,0.30
2017,05,09,17,05,0.40
2017,05,09,17,06,0.20
2017,05,09,17,07,0.00
2017,05,09,17,08,0.10
2017,05,09,17,09,1.60
2017,05,09,17,10,1.90
2017,05,09,17,11,8.50
2017,05,09,17,12,5.60
2017,05,09,17,13,4.10
2017,05,09,17,14,9.90
2017,05,09,17,15,10.60
2017,05,09,17,16,4.70
2017,05,09,17,17,1.00
2017,05,09,17,18,8.00
2017,05,09,17,19,2.20
2017,05,09,17,20,1.40
2017,05,09,17,21,2.80
2017,05,09,17,22,3.10
2017,05,09,17,23,1.50
2017,05,09,17,24,6.40
2017,05,09,17,25,2.70
2017,05,09,17,26,5.20
2017,05,09,17,27,5.60
2017,05,09,17,28,5.20
2017,05,09,17,29,6.90
2017,05,09,17,30,2.70
2017,05,09,17,31,3.70
2017,05,09,17,32,3.90
2017,05,09,17,33,7.20
2017,05,09,17,34,9.20
2017,05,09,17,35,8.30
2017,05,09,17,36,7.60
2017,05,09,17,37,6.10
2017,05,09,17,38,0.20
2017,05,09,17,39,0.60
2017,05,09,17,40,1.90
2017,05,09,17,41,7.40
2017,05,09,17,42,7.40
2017,05,09,17,43,3.70
2017,05,09,17,44,0.00
2017,05,09,17,45,1.00
2017,05,09,17,46,1.00
2017,05,09,17,47,2.40
2017,05,09,17,48,0.80
2017,05,09,17,49,0.50
2017,05,09,17,50,5.30
2017,05,09,17,51,4.10
2017,05,09,17,52,5.30
2017,05,09,17,53,5.60
2017,05,09,17,54,3.40
2017,05,09,17,55,3.30
2017,05,09,17,56,7.80
2017,05,09,17,57,6.70
2017,05,09,17,58,5.40
2017,05,09,17,59,2.30
2017,05,09,18,00,8.30
2017,05,09,18,01,3.80
2017,05,09,18,02,0.00
2017,05,09,18,03,1.10
2017,05,09,18,04,9.30